Location: College Rock
(37.2713°N, 119.1740°W)
Time: 12:50:56
(UTC+00:00)

SJ-7 - Pass Details

Date: 29 October 2020
Orbit: 555 x 603 km, 97.7° (Epoch: 01 December)

Event Time Altitude Azimuth Distance (km) Brightness Sun altitude
Rises 13:47:21 0° 10° (N) 2,756 7.9 -6.9°
Reaches altitude 10° 13:49:31 10° 8° (N) 1,851 7.0 -6.5°
Maximum altitude 13:53:30 74° 284° (WNW) 581 4.3 -5.7°
Drops below altitude 10° 13:57:26 10° 199° (SSW) 1,829 6.9 -4.9°
Sets 13:59:33 0° 197° (SSW) 2,719 7.8 -4.5°
